HAZ2814 ZBAD-ZSHC

Flight info

Callsign HAZ2814
Flight time 1h 35m
Altitude 37100
Route ELKUR W40 YQG W142 DALIM A593 DPX A470 OF W95 SAPIN A470 IGRAT
Aircraft B738/M-SDE2E3FGHIRWXY/LB1

Departure

Time 2026-04-25 02:37
Airport Beijing Daxing International Airport (ZBAD)

Arrival

Time 2026-04-25 04:12
Airport Hangzhou Xiaoshan International Airport (ZSHC)
Time Latitude Longitude Altitude Speed Heading
2026-04-25 02:18 39.50798 116.41839 84 ft 0 kts 295°
2026-04-25 02:30 39.50796 116.41843 88 ft 2 kts 295°
2026-04-25 02:30 39.50784 116.41873 87 ft 4 kts 304°
2026-04-25 02:30 39.50767 116.41900 85 ft 4 kts 321°
2026-04-25 02:30 39.50745 116.41914 88 ft 3 kts
2026-04-25 02:31 39.50738 116.41913 88 ft 1 kts 23°
2026-04-25 02:33 39.50754 116.41921 88 ft 5 kts 22°
2026-04-25 02:33 39.50796 116.41959 87 ft 9 kts 54°
2026-04-25 02:34 39.50812 116.42049 84 ft 12 kts 86°
2026-04-25 02:34 39.50758 116.42119 84 ft 13 kts 170°
2026-04-25 02:34 39.50662 116.42134 85 ft 15 kts 173°
2026-04-25 02:34 39.50550 116.42151 85 ft 17 kts 173°
2026-04-25 02:35 39.50425 116.42171 85 ft 19 kts 173°
2026-04-25 02:35 39.50287 116.42192 86 ft 21 kts 173°
2026-04-25 02:35 39.50165 116.42214 86 ft 15 kts 164°
2026-04-25 02:35 39.50126 116.42324 86 ft 15 kts 87°
2026-04-25 02:36 39.50140 116.42451 86 ft 14 kts 82°
2026-04-25 02:36 39.50146 116.42574 93 ft 13 kts 96°
2026-04-25 02:36 39.50096 116.42666 94 ft 13 kts 151°
2026-04-25 02:36 39.49997 116.42690 94 ft 25 kts 173°
2026-04-25 02:37 39.49554 116.42760 97 ft 102 kts 173°
2026-04-25 02:37 39.48623 116.42898 111 ft 164 kts 173°
2026-04-25 02:37 39.47418 116.43037 799 ft 166 kts 175°
2026-04-25 02:37 39.46372 116.43509 1958 ft 165 kts 150°
2026-04-25 02:38 39.45327 116.44342 2342 ft 191 kts 150°
2026-04-25 02:38 39.44153 116.45295 2750 ft 205 kts 151°
2026-04-25 02:38 39.43122 116.46605 3282 ft 218 kts 122°
2026-04-25 02:38 39.42832 116.48611 3573 ft 243 kts 89°
2026-04-25 02:39 39.43054 116.50908 3766 ft 270 kts 82°
2026-04-25 02:39 39.43386 116.53371 3917 ft 285 kts 82°
2026-04-25 02:39 39.43718 116.55901 3934 ft 285 kts 82°
2026-04-25 02:39 39.44024 116.58429 3934 ft 282 kts 83°
2026-04-25 02:40 39.44311 116.60929 3923 ft 280 kts 83°
2026-04-25 02:40 39.44590 116.63424 3944 ft 281 kts 84°
2026-04-25 02:40 39.44854 116.65948 4029 ft 285 kts 84°
2026-04-25 02:40 39.45088 116.68497 4626 ft 285 kts 85°
2026-04-25 02:41 39.45319 116.71045 4883 ft 285 kts 85°
2026-04-25 02:41 39.45548 116.73588 4915 ft 284 kts 88°
2026-04-25 02:41 39.45301 116.76093 5110 ft 284 kts 115°
2026-04-25 02:41 39.44199 116.78143 5829 ft 276 kts 142°
2026-04-25 02:42 39.42574 116.79380 6641 ft 271 kts 161°
2026-04-25 02:42 39.40807 116.80273 7323 ft 275 kts 162°
2026-04-25 02:42 39.39003 116.81159 8031 ft 279 kts 162°
2026-04-25 02:42 39.37179 116.82066 8769 ft 283 kts 161°
2026-04-25 02:43 39.35327 116.82997 9502 ft 287 kts 161°
2026-04-25 02:43 39.33456 116.83942 10222 ft 291 kts 161°
2026-04-25 02:43 39.31501 116.84928 10496 ft 313 kts 161°
2026-04-25 02:43 39.29398 116.85989 10679 ft 336 kts 161°
2026-04-25 02:44 39.27188 116.87104 10842 ft 357 kts 160°
2026-04-25 02:44 39.24841 116.88290 11272 ft 368 kts 160°
2026-04-25 02:44 39.22440 116.89505 11903 ft 372 kts 160°
2026-04-25 02:44 39.20027 116.90724 12589 ft 375 kts 160°
2026-04-25 02:45 39.17586 116.91958 13286 ft 379 kts 160°
2026-04-25 02:45 39.15106 116.93207 13937 ft 384 kts 160°
2026-04-25 02:45 39.12605 116.94465 14569 ft 388 kts 160°
2026-04-25 02:45 39.10077 116.95736 15210 ft 392 kts 160°
2026-04-25 02:46 39.07522 116.97022 15857 ft 397 kts 160°
2026-04-25 02:46 39.04935 116.98323 16467 ft 402 kts 160°
2026-04-25 02:46 39.02318 116.99638 17115 ft 405 kts 159°
2026-04-25 02:46 38.99674 117.00966 17677 ft 411 kts 159°
2026-04-25 02:47 38.96993 117.02310 18355 ft 414 kts 159°
2026-04-25 02:47 38.94297 117.03661 18818 ft 420 kts 159°
2026-04-25 02:47 38.91550 117.05036 19312 ft 424 kts 159°
2026-04-25 02:47 38.88781 117.06347 19874 ft 427 kts 165°
2026-04-25 02:48 38.85817 117.06713 20314 ft 430 kts 186°
2026-04-25 02:48 38.82928 117.05820 20900 ft 429 kts 204°
2026-04-25 02:48 38.80375 117.03842 21300 ft 431 kts 222°
2026-04-25 02:48 38.78378 117.00996 21750 ft 431 kts 240°
2026-04-25 02:49 38.76917 116.97644 22293 ft 431 kts 244°
2026-04-25 02:49 38.75531 116.94223 22753 ft 435 kts 245°
2026-04-25 02:49 38.74138 116.90761 23191 ft 439 kts 245°
2026-04-25 02:49 38.72720 116.87283 23636 ft 442 kts 244°
2026-04-25 02:50 38.71271 116.83786 24025 ft 445 kts 244°
2026-04-25 02:50 38.69804 116.80282 24405 ft 448 kts 244°
2026-04-25 02:50 38.68322 116.76759 24777 ft 451 kts 244°
2026-04-25 02:50 38.66827 116.73214 25146 ft 454 kts 244°
2026-04-25 02:51 38.65020 116.69884 25465 ft 463 kts 227°
2026-04-25 02:51 38.62446 116.67381 25811 ft 470 kts 210°
2026-04-25 02:51 38.59384 116.65877 26159 ft 475 kts 192°
2026-04-25 02:51 38.56089 116.65353 26521 ft 478 kts 185°
2026-04-25 02:52 38.52761 116.65037 26830 ft 481 kts 184°
2026-04-25 02:52 38.49413 116.64746 27115 ft 485 kts 184°
2026-04-25 02:52 38.46040 116.64425 27416 ft 487 kts 185°
2026-04-25 02:52 38.42696 116.64070 27731 ft 489 kts 185°
2026-04-25 02:53 38.39293 116.63681 28037 ft 492 kts 185°
2026-04-25 02:53 38.35880 116.63282 28325 ft 494 kts 185°
2026-04-25 02:53 38.32442 116.62900 28603 ft 497 kts 183°
2026-04-25 02:53 38.28986 116.62956 28879 ft 499 kts 174°
2026-04-25 02:54 38.25564 116.63640 29306 ft 496 kts 164°
2026-04-25 02:54 38.22260 116.64874 29785 ft 494 kts 161°
2026-04-25 02:54 38.18988 116.66183 30186 ft 493 kts 161°
2026-04-25 02:54 38.15707 116.67464 30500 ft 493 kts 161°
2026-04-25 02:55 38.12417 116.68697 30834 ft 493 kts 162°
2026-04-25 02:55 38.09130 116.69903 31211 ft 491 kts 162°
2026-04-25 02:55 38.05856 116.71134 31587 ft 490 kts 161°
2026-04-25 02:55 38.02597 116.72382 31935 ft 489 kts 161°
2026-04-25 02:56 37.99344 116.73636 32256 ft 488 kts 161°
2026-04-25 02:56 37.96092 116.74889 32593 ft 488 kts 161°
2026-04-25 02:56 37.92852 116.76133 32953 ft 486 kts 161°
2026-04-25 02:56 37.89616 116.77368 33296 ft 485 kts 161°
2026-04-25 02:57 37.86386 116.78598 33622 ft 485 kts 161°
2026-04-25 02:57 37.83159 116.79826 33953 ft 484 kts 161°
2026-04-25 02:57 37.79938 116.81048 34242 ft 483 kts 161°
2026-04-25 02:57 37.76718 116.82267 34473 ft 483 kts 161°
2026-04-25 02:58 37.73497 116.83486 34685 ft 484 kts 161°
2026-04-25 02:58 37.70269 116.84708 34919 ft 484 kts 161°
2026-04-25 02:58 37.67045 116.85927 35160 ft 484 kts 161°
2026-04-25 02:58 37.63819 116.87147 35406 ft 483 kts 162°
2026-04-25 02:59 37.60598 116.88362 35632 ft 484 kts 162°
2026-04-25 02:59 37.57370 116.89579 35857 ft 484 kts 162°
2026-04-25 02:59 37.54148 116.90792 36105 ft 483 kts 162°
2026-04-25 02:59 37.50936 116.92000 36358 ft 482 kts 162°
2026-04-25 03:00 37.47724 116.93210 36622 ft 481 kts 162°
2026-04-25 03:00 37.44517 116.94417 36872 ft 480 kts 162°
2026-04-25 03:00 37.41312 116.95620 37096 ft 480 kts 162°
2026-04-25 03:01 37.34881 116.98026 37138 ft 483 kts 163°
2026-04-25 03:01 37.28483 117.00462 37135 ft 479 kts 160°
2026-04-25 03:02 37.22259 117.03349 37143 ft 476 kts 158°
2026-04-25 03:02 37.16083 117.06287 37139 ft 474 kts 159°
2026-04-25 03:03 37.09919 117.09173 37147 ft 472 kts 159°
2026-04-25 03:03 37.03801 117.12026 37143 ft 473 kts 159°
2026-04-25 03:04 36.97631 117.14900 37144 ft 474 kts 159°
2026-04-25 03:04 36.91438 117.17778 37145 ft 475 kts 159°
2026-04-25 03:05 36.81969 117.21486 37148 ft 477 kts 172°
2026-04-25 03:05 36.75335 117.21702 37155 ft 477 kts 181°
2026-04-25 03:06 36.68684 117.21542 37147 ft 478 kts 181°
2026-04-25 03:06 36.62019 117.21447 37156 ft 479 kts 181°
2026-04-25 03:07 36.55347 117.21399 37160 ft 480 kts 181°
2026-04-25 03:07 36.48667 117.21353 37169 ft 480 kts 181°
2026-04-25 03:08 36.41991 117.21509 37158 ft 481 kts 174°
2026-04-25 03:08 36.35507 117.23473 37175 ft 480 kts 162°
2026-04-25 03:09 36.29147 117.25966 37169 ft 479 kts 162°
2026-04-25 03:09 36.22826 117.28382 37174 ft 478 kts 163°
2026-04-25 03:10 36.16459 117.30751 37178 ft 476 kts 164°
2026-04-25 03:10 36.10114 117.33097 37178 ft 475 kts 164°
2026-04-25 03:11 36.03783 117.35439 37188 ft 475 kts 164°
2026-04-25 03:11 35.98524 117.37387 37185 ft 474 kts 164°
2026-04-25 03:12 35.92206 117.39755 37180 ft 474 kts 164°
2026-04-25 03:12 35.85898 117.42125 37184 ft 474 kts 164°
2026-04-25 03:13 35.79589 117.44487 37187 ft 474 kts 164°
2026-04-25 03:13 35.73281 117.46842 37188 ft 474 kts 164°
2026-04-25 03:14 35.66973 117.49191 37185 ft 474 kts 165°
2026-04-25 03:14 35.60658 117.51539 37189 ft 474 kts 165°
2026-04-25 03:15 35.54342 117.53884 37194 ft 474 kts 165°
2026-04-25 03:15 35.48023 117.56227 37196 ft 474 kts 165°
2026-04-25 03:16 35.41710 117.58564 37200 ft 474 kts 165°
2026-04-25 03:16 35.35431 117.60883 37196 ft 474 kts 165°
2026-04-25 03:17 35.29121 117.63210 37204 ft 473 kts 165°
2026-04-25 03:17 35.22818 117.65531 37202 ft 473 kts 165°
2026-04-25 03:18 35.16515 117.67848 37207 ft 472 kts 165°
2026-04-25 03:18 35.10226 117.70156 37205 ft 472 kts 165°
2026-04-25 03:19 35.03943 117.72457 37204 ft 471 kts 165°
2026-04-25 03:19 34.97660 117.74746 37207 ft 470 kts 165°
2026-04-25 03:20 34.91400 117.77023 37211 ft 470 kts 165°
2026-04-25 03:20 34.85131 117.79300 37205 ft 469 kts 165°
2026-04-25 03:21 34.78871 117.81536 37207 ft 469 kts 166°
2026-04-25 03:21 34.72661 117.83766 37207 ft 468 kts 166°
2026-04-25 03:22 34.66417 117.86013 37207 ft 468 kts 166°
2026-04-25 03:22 34.60166 117.88256 37205 ft 468 kts 166°
2026-04-25 03:23 34.53933 117.90487 37209 ft 467 kts 166°
2026-04-25 03:23 34.47696 117.92716 37206 ft 467 kts 166°
2026-04-25 03:24 34.41456 117.94942 37211 ft 468 kts 166°
2026-04-25 03:24 34.35212 117.97166 37210 ft 468 kts 166°
2026-04-25 03:25 34.28963 117.99388 37208 ft 468 kts 166°
2026-04-25 03:25 34.22719 118.01646 37205 ft 469 kts 165°
2026-04-25 03:26 34.16483 118.03943 37216 ft 469 kts 165°
2026-04-25 03:26 34.10246 118.06230 37212 ft 469 kts 165°
2026-04-25 03:27 34.03997 118.08510 37216 ft 469 kts 165°
2026-04-25 03:27 33.97792 118.10774 37207 ft 469 kts 165°
2026-04-25 03:28 33.91553 118.13059 37208 ft 469 kts 165°
2026-04-25 03:28 33.85305 118.15341 37205 ft 469 kts 166°
2026-04-25 03:29 33.79021 118.17633 37211 ft 469 kts 166°
2026-04-25 03:29 33.72785 118.19909 37208 ft 468 kts 166°
2026-04-25 03:30 33.66548 118.22182 37211 ft 468 kts 166°
2026-04-25 03:30 33.60315 118.24448 37208 ft 468 kts 166°
2026-04-25 03:31 33.54131 118.26693 37213 ft 467 kts 166°
2026-04-25 03:31 33.47910 118.28948 37215 ft 467 kts 166°
2026-04-25 03:32 33.41698 118.31196 37215 ft 466 kts 166°
2026-04-25 03:32 33.35490 118.33439 37211 ft 466 kts 166°
2026-04-25 03:33 33.29286 118.35677 37212 ft 465 kts 166°
2026-04-25 03:33 33.23086 118.37911 37208 ft 465 kts 166°
2026-04-25 03:34 33.16893 118.40136 37210 ft 464 kts 166°
2026-04-25 03:34 33.10708 118.42351 37213 ft 464 kts 167°
2026-04-25 03:35 33.04527 118.44561 37210 ft 464 kts 167°
2026-04-25 03:35 32.98344 118.46768 37206 ft 464 kts 167°
2026-04-25 03:36 32.92159 118.48973 37211 ft 464 kts 167°
2026-04-25 03:36 32.85974 118.51174 37206 ft 464 kts 167°
2026-04-25 03:37 32.79791 118.53372 37210 ft 464 kts 167°
2026-04-25 03:37 32.73611 118.55565 37208 ft 464 kts 167°
2026-04-25 03:38 32.67431 118.57756 37215 ft 463 kts 167°
2026-04-25 03:38 32.61246 118.59888 37214 ft 463 kts 168°
2026-04-25 03:39 32.55062 118.61978 37213 ft 462 kts 168°
2026-04-25 03:39 32.48877 118.64071 37212 ft 462 kts 168°
2026-04-25 03:40 32.42708 118.66162 37213 ft 461 kts 168°
2026-04-25 03:40 32.36538 118.68252 37211 ft 461 kts 168°
2026-04-25 03:41 32.30374 118.70336 37211 ft 461 kts 168°
2026-04-25 03:41 32.24215 118.72417 37217 ft 460 kts 169°
2026-04-25 03:42 32.18054 118.74496 37211 ft 460 kts 169°
2026-04-25 03:42 32.11944 118.76553 37206 ft 460 kts 169°
2026-04-25 03:43 32.05798 118.78619 37209 ft 460 kts 169°
2026-04-25 03:43 31.99643 118.80686 37211 ft 459 kts 169°
2026-04-25 03:44 31.93481 118.82676 37228 ft 458 kts 170°
2026-04-25 03:44 31.87315 118.84610 37214 ft 458 kts 170°
2026-04-25 03:45 31.81166 118.86631 37230 ft 460 kts 168°
2026-04-25 03:45 31.75218 118.89542 37235 ft 470 kts 154°
2026-04-25 03:46 31.70055 118.94388 37183 ft 481 kts 141°
2026-04-25 03:46 31.67607 118.97093 36593 ft 485 kts 144°
2026-04-25 03:46 31.64975 118.99482 36158 ft 473 kts 149°
2026-04-25 03:47 31.62288 119.01717 35520 ft 473 kts 149°
2026-04-25 03:47 31.59619 119.03971 34860 ft 473 kts 148°
2026-04-25 03:47 31.57005 119.06236 34191 ft 473 kts 148°
2026-04-25 03:47 31.54338 119.08579 33482 ft 471 kts 147°
2026-04-25 03:48 31.51718 119.10879 32748 ft 470 kts 147°
2026-04-25 03:48 31.49102 119.13168 32001 ft 469 kts 147°
2026-04-25 03:48 31.46517 119.15423 31222 ft 470 kts 146°
2026-04-25 03:48 31.43865 119.17739 30478 ft 469 kts 146°
2026-04-25 03:49 31.41281 119.19997 29575 ft 470 kts 146°
2026-04-25 03:49 31.38633 119.22310 28811 ft 467 kts 146°
2026-04-25 03:49 31.36081 119.24540 28168 ft 461 kts 146°
2026-04-25 03:49 31.33525 119.26771 27556 ft 455 kts 146°
2026-04-25 03:50 31.30999 119.28973 26933 ft 451 kts 146°
2026-04-25 03:50 31.28495 119.31154 26323 ft 447 kts 146°
2026-04-25 03:50 31.26014 119.33313 25724 ft 443 kts 146°
2026-04-25 03:50 31.23555 119.35452 25122 ft 439 kts 146°
2026-04-25 03:51 31.21113 119.37574 24545 ft 436 kts 146°
2026-04-25 03:51 31.18685 119.39685 23918 ft 434 kts 145°
2026-04-25 03:51 31.16256 119.41807 23167 ft 434 kts 145°
2026-04-25 03:51 31.13850 119.43914 22528 ft 431 kts 145°
2026-04-25 03:52 31.11464 119.46004 21920 ft 427 kts 145°
2026-04-25 03:52 31.09102 119.48072 21314 ft 423 kts 145°
2026-04-25 03:52 31.06756 119.50124 20729 ft 420 kts 145°
2026-04-25 03:52 31.04430 119.52156 20150 ft 416 kts 145°
2026-04-25 03:53 31.02122 119.54171 19579 ft 413 kts 145°
2026-04-25 03:53 30.99833 119.56167 19016 ft 410 kts 145°
2026-04-25 03:53 30.97557 119.58151 18442 ft 407 kts 145°
2026-04-25 03:53 30.95291 119.60125 17791 ft 405 kts 145°
2026-04-25 03:54 30.93041 119.62082 17191 ft 402 kts 145°
2026-04-25 03:54 30.90815 119.64018 16614 ft 398 kts 145°
2026-04-25 03:54 30.88608 119.65937 16051 ft 394 kts 145°
2026-04-25 03:54 30.86418 119.67839 15504 ft 391 kts 144°
2026-04-25 03:55 30.84212 119.69754 14941 ft 389 kts 144°
2026-04-25 03:55 30.82052 119.71628 14403 ft 386 kts 144°
2026-04-25 03:55 30.80633 119.72859 14061 ft 384 kts 144°
2026-04-25 03:55 30.77797 119.75319 13243 ft 382 kts 144°
2026-04-25 03:56 30.75674 119.77161 12674 ft 378 kts 144°
2026-04-25 03:56 30.74256 119.78386 12301 ft 376 kts 144°
2026-04-25 03:56 30.71508 119.80764 11473 ft 365 kts 144°
2026-04-25 03:56 30.69521 119.82539 10991 ft 353 kts 142°
2026-04-25 03:57 30.68243 119.83708 10888 ft 339 kts 142°
2026-04-25 03:57 30.65878 119.85872 10669 ft 317 kts 143°
2026-04-25 03:57 30.64720 119.86927 10587 ft 309 kts 143°
2026-04-25 03:57 30.62969 119.88309 10452 ft 301 kts 150°
2026-04-25 03:58 30.61133 119.89491 10323 ft 304 kts 153°
2026-04-25 03:58 30.59263 119.90594 10161 ft 299 kts 159°
2026-04-25 03:58 30.57233 119.91406 9958 ft 318 kts 165°
2026-04-25 03:58 30.55129 119.92099 9734 ft 310 kts 166°
2026-04-25 03:59 30.53088 119.92751 9502 ft 297 kts 165°
2026-04-25 03:59 30.51171 119.93372 9277 ft 283 kts 165°
2026-04-25 03:59 30.49312 119.93987 9097 ft 274 kts 165°
2026-04-25 03:59 30.47496 119.94598 8871 ft 271 kts 165°
2026-04-25 04:00 30.45682 119.95206 8675 ft 274 kts 165°
2026-04-25 04:00 30.43836 119.95843 8445 ft 278 kts 164°
2026-04-25 04:00 30.41988 119.96482 8257 ft 277 kts 164°
2026-04-25 04:00 30.40142 119.97123 8035 ft 277 kts 164°
2026-04-25 04:01 30.38305 119.97761 7823 ft 274 kts 164°
2026-04-25 04:01 30.36488 119.98390 7610 ft 271 kts 164°
2026-04-25 04:01 30.34695 119.99014 7405 ft 268 kts 164°
2026-04-25 04:01 30.32914 119.99632 7178 ft 265 kts 164°
2026-04-25 04:02 30.31154 120.00240 6981 ft 262 kts 164°
2026-04-25 04:02 30.29421 120.00843 6787 ft 259 kts 164°
2026-04-25 04:02 30.27705 120.01440 6574 ft 256 kts 164°
2026-04-25 04:02 30.26005 120.02027 6345 ft 253 kts 164°
2026-04-25 04:03 30.24327 120.02608 6136 ft 251 kts 164°
2026-04-25 04:03 30.22663 120.03186 5930 ft 249 kts 163°
2026-04-25 04:03 30.21012 120.03761 5716 ft 247 kts 164°
2026-04-25 04:03 30.19381 120.04324 5532 ft 242 kts 164°
2026-04-25 04:04 30.17788 120.04874 5390 ft 235 kts 163°
2026-04-25 04:04 30.16249 120.05412 5210 ft 229 kts 162°
2026-04-25 04:04 30.14801 120.06145 5072 ft 227 kts 153°
2026-04-25 04:04 30.13399 120.07001 4961 ft 231 kts 153°
2026-04-25 04:05 30.12023 120.07861 4923 ft 218 kts 147°
2026-04-25 04:05 30.11116 120.09156 4891 ft 202 kts 105°
2026-04-25 04:05 30.11219 120.10673 4881 ft 187 kts 68°
2026-04-25 04:05 30.11668 120.12116 4663 ft 191 kts 71°
2026-04-25 04:06 30.12087 120.13559 4565 ft 191 kts 69°
2026-04-25 04:06 30.12576 120.14987 4418 ft 189 kts 65°
2026-04-25 04:06 30.13117 120.16347 4250 ft 183 kts 63°
2026-04-25 04:06 30.13673 120.17659 4146 ft 181 kts 63°
2026-04-25 04:07 30.14225 120.18934 4143 ft 174 kts 62°
2026-04-25 04:07 30.14782 120.20209 3922 ft 179 kts 62°
2026-04-25 04:07 30.15345 120.21496 3709 ft 179 kts 62°
2026-04-25 04:07 30.15903 120.22769 3474 ft 176 kts 63°
2026-04-25 04:08 30.16448 120.24016 3249 ft 173 kts 63°
2026-04-25 04:08 30.16989 120.25249 3013 ft 170 kts 63°
2026-04-25 04:08 30.17521 120.26460 2791 ft 167 kts 63°
2026-04-25 04:08 30.18040 120.27641 2593 ft 160 kts 63°
2026-04-25 04:09 30.18529 120.28759 2368 ft 150 kts 63°
2026-04-25 04:09 30.18987 120.29802 2176 ft 145 kts 64°
2026-04-25 04:09 30.19433 120.30838 1981 ft 143 kts 62°
2026-04-25 04:09 30.19882 120.31848 1759 ft 138 kts 63°
2026-04-25 04:10 30.20328 120.32836 1585 ft 141 kts 58°
2026-04-25 04:10 30.20783 120.33831 1419 ft 139 kts 63°
2026-04-25 04:10 30.21208 120.34852 1225 ft 142 kts 63°
2026-04-25 04:10 30.21649 120.35866 1034 ft 140 kts 62°
2026-04-25 04:11 30.22514 120.37869 646 ft 137 kts 63°
2026-04-25 04:11 30.22938 120.38842 454 ft 136 kts 60°
2026-04-25 04:11 30.23236 120.39490 370 ft 135 kts 61°
2026-04-25 04:12 30.23802 120.40782 118 ft 135 kts 62°
2026-04-25 04:12 30.24219 120.41735 33 ft 130 kts 61°
2026-04-25 04:12 30.24362 120.42042 32 ft 123 kts 62°
2026-04-25 04:12 30.24706 120.42861 30 ft 28 kts 76°
2026-04-25 04:13 30.24722 120.43048 32 ft 20 kts 96°
2026-04-25 04:13 30.24723 120.43197 31 ft 18 kts 88°
2026-04-25 04:13 30.24648 120.43269 31 ft 14 kts 174°
2026-04-25 04:13 30.24578 120.43205 30 ft 14 kts 244°
2026-04-25 04:14 30.24538 120.43108 31 ft 13 kts 244°
2026-04-25 04:14 30.24496 120.43017 31 ft 13 kts 241°
2026-04-25 04:14 30.24456 120.42928 31 ft 12 kts 243°
2026-04-25 04:14 30.24417 120.42840 31 ft 12 kts 243°
2026-04-25 04:15 30.24380 120.42753 31 ft 12 kts 243°
2026-04-25 04:15 30.24344 120.42672 31 ft 11 kts 243°
2026-04-25 04:15 30.24308 120.42591 31 ft 11 kts 243°
2026-04-25 04:15 30.24272 120.42509 31 ft 12 kts 243°
2026-04-25 04:16 30.24231 120.42416 31 ft 14 kts 243°
2026-04-25 04:16 30.24185 120.42311 31 ft 15 kts 243°
2026-04-25 04:16 30.24154 120.42242 31 ft 1 kts 243°
2026-04-25 04:16 30.24152 120.42238 31 ft 0 kts 243°
2026-04-25 04:17 30.24151 120.42234 31 ft 2 kts 243°
2026-04-25 04:17 30.24135 120.42198 31 ft 8 kts 243°
2026-04-25 04:17 30.24070 120.42169 30 ft 14 kts 176°
2026-04-25 04:17 30.23978 120.42114 30 ft 15 kts 191°
2026-04-25 04:18 30.23886 120.42150 31 ft 11 kts 168°
2026-04-25 04:18 30.23844 120.42129 31 ft 5 kts 227°
2026-04-25 04:18 30.23831 120.42111 31 ft 3 kts 230°
2026-04-25 04:18 30.23819 120.42094 31 ft 3 kts 231°
2026-04-25 04:19 30.23810 120.42081 30 ft 1 kts 231°
2026-04-25 04:19 30.23809 120.42079 29 ft 0 kts 231°
2026-04-25 04:19 30.23808 120.42078 29 ft 0 kts 231°